Stündliche Wetter Abaclia

Heute, 22 Juni, Dienstag

Zeit Temperatur Niederschläge Wind Luftdruck Luftfeuchtigkeit
00:00 +23°C° 0.2 mm 1 m/S 753 mmHg 81%
01:00 +23°C° 0.2 mm 1 m/S 753 mmHg 82%
02:00 +21°C° 0 mm 2 m/S 753 mmHg 84%
03:00 +21°C° 0.7 mm 2 m/S 753 mmHg 86%
04:00 +21°C° 0.7 mm 2 m/S 752 mmHg 87%
05:00 +21°C° 0.7 mm 2 m/S 752 mmHg 88%
06:00 +22°C° 0.3 mm 3 m/S 752 mmHg 84%
07:00 +23°C° 0.3 mm 4 m/S 752 mmHg 81%
08:00 +25°C° 0.3 mm 4 m/S 752 mmHg 77%
09:00 +26°C° 0.7 mm 4 m/S 752 mmHg 71%
10:00 +28°C° 0.7 mm 3 m/S 752 mmHg 66%
11:00 +29°C° 0.7 mm 3 m/S 752 mmHg 60%
12:00 +29°C° 0.5 mm 3 m/S 752 mmHg 58%
13:00 +30°C° 0.5 mm 2 m/S 752 mmHg 56%
14:00 +30°C° 0.5 mm 2 m/S 752 mmHg 54%
15:00 +30°C° 0.1 mm 2 m/S 752 mmHg 56%
16:00 +30°C° 0.1 mm 2 m/S 752 mmHg 57%
17:00 +30°C° 0.1 mm 2 m/S 752 mmHg 59%
18:00 +29°C° 0.1 mm 2 m/S 752 mmHg 62%
19:00 +28°C° 0.1 mm 2 m/S 752 mmHg 66%
20:00 +27°C° 0.1 mm 2 m/S 752 mmHg 70%
21:00 +26°C° 0.1 mm 2 m/S 752 mmHg 72%
22:00 +25°C° 0.1 mm 2 m/S 752 mmHg 75%
23:00 +25°C° 0.1 mm 1 m/S 753 mmHg 78%

Morgen, 23 Juni, Mittwoch

Zeit Temperatur Niederschläge Wind Luftdruck Luftfeuchtigkeit
00:00 +24°C° 0 mm 1 m/S 753 mmHg 80%
01:00 +24°C° 0 mm 1 m/S 753 mmHg 82%
02:00 +23°C° 0 mm 1 m/S 753 mmHg 84%
03:00 +23°C° 0 mm 1 m/S 753 mmHg 85%
04:00 +23°C° 0 mm 1 m/S 753 mmHg 87%
05:00 +23°C° 0 mm 1 m/S 753 mmHg 88%
06:00 +24°C° 0 mm 2 m/S 753 mmHg 82%
07:00 +26°C° 0 mm 2 m/S 754 mmHg 76%
08:00 +27°C° 0 mm 3 m/S 754 mmHg 70%
09:00 +28°C° 0 mm 3 m/S 754 mmHg 66%
10:00 +29°C° 0 mm 2 m/S 754 mmHg 62%
11:00 +30°C° 0 mm 2 m/S 754 mmHg 58%
12:00 +31°C° 0.1 mm 2 m/S 754 mmHg 56%
13:00 +32°C° 0.1 mm 1 m/S 754 mmHg 53%
14:00 +32°C° 0.1 mm 1 m/S 754 mmHg 51%
15:00 +31°C° 0.5 mm 2 m/S 754 mmHg 56%
16:00 +31°C° 0.5 mm 2 m/S 754 mmHg 60%
17:00 +30°C° 0.5 mm 2 m/S 754 mmHg 64%
18:00 +28°C° 2.4 mm 2 m/S 754 mmHg 70%
19:00 +27°C° 2.4 mm 2 m/S 755 mmHg 76%
20:00 +25°C° 2.4 mm 2 m/S 755 mmHg 82%
21:00 +25°C° 0.9 mm 2 m/S 755 mmHg 83%
22:00 +24°C° 0.9 mm 1 m/S 755 mmHg 85%
23:00 +24°C° 0.9 mm 1 m/S 755 mmHg 87%

übermorgen, 24 Juni, Donnerstag

Zeit Temperatur Niederschläge Wind Luftdruck Luftfeuchtigkeit
00:00 +23°C° 0.2 mm 1 m/S 755 mmHg 87%
01:00 +23°C° 0.2 mm 1 m/S 755 mmHg 87%
02:00 +23°C° 0.2 mm 1 m/S 755 mmHg 87%
03:00 +23°C° 0 mm 1 m/S 755 mmHg 87%
04:00 +23°C° 0 mm 1 m/S 755 mmHg 87%
05:00 +23°C° 0 mm 2 m/S 755 mmHg 87%
06:00 +25°C° 0 mm 2 m/S 755 mmHg 82%
07:00 +26°C° 0 mm 2 m/S 755 mmHg 77%
08:00 +28°C° 0 mm 3 m/S 755 mmHg 72%
09:00 +29°C° 0 mm 3 m/S 755 mmHg 66%
10:00 +30°C° 0 mm 2 m/S 755 mmHg 61%
11:00 +32°C° 0 mm 2 m/S 756 mmHg 55%
12:00 +32°C° 0 mm 2 m/S 755 mmHg 53%
13:00 +34°C° 0 mm 2 m/S 755 mmHg 50%
14:00 +34°C° 0 mm 2 m/S 755 mmHg 48%
15:00 +34°C° 0 mm 2 m/S 755 mmHg 48%
16:00 +34°C° 0 mm 3 m/S 755 mmHg 49%
17:00 +34°C° 0 mm 3 m/S 755 mmHg 49%
18:00 +33°C° 0 mm 3 m/S 755 mmHg 56%
19:00 +30°C° 0 mm 3 m/S 755 mmHg 63%
20:00 +28°C° 0 mm 2 m/S 754 mmHg 70%
21:00 +28°C° 0.1 mm 2 m/S 755 mmHg 72%
22:00 +27°C° 0.1 mm 2 m/S 755 mmHg 74%
23:00 +26°C° 0.1 mm 2 m/S 755 mmHg 76%

25 Juni, Freitag

Zeit Temperatur Niederschläge Wind Luftdruck Luftfeuchtigkeit
00:00 +26°C° 0.2 mm 2 m/S 755 mmHg 77%
01:00 +26°C° 0.2 mm 2 m/S 754 mmHg 79%
02:00 +25°C° 0.2 mm 2 m/S 754 mmHg 81%
03:00 +25°C° 0.1 mm 2 m/S 754 mmHg 82%
04:00 +25°C° 0.1 mm 2 m/S 754 mmHg 83%
05:00 +25°C° 0.1 mm 2 m/S 754 mmHg 84%
06:00 +26°C° 0.3 mm 3 m/S 754 mmHg 80%
07:00 +27°C° 0.3 mm 4 m/S 754 mmHg 77%
08:00 +29°C° 0.3 mm 4 m/S 754 mmHg 73%
09:00 +30°C° 0 mm 5 m/S 754 mmHg 68%
10:00 +32°C° 0 mm 5 m/S 754 mmHg 64%
11:00 +32°C° 0 mm 5 m/S 754 mmHg 59%
12:00 +33°C° 0 mm 5 m/S 754 mmHg 56%
13:00 +33°C° 0 mm 5 m/S 754 mmHg 54%
14:00 +34°C° 0 mm 5 m/S 754 mmHg 51%
15:00 +33°C° 0 mm 4 m/S 753 mmHg 50%
16:00 +33°C° 0 mm 4 m/S 753 mmHg 49%
17:00 +33°C° 0 mm 3 m/S 753 mmHg 48%
18:00 +31°C° 0 mm 3 m/S 753 mmHg 56%
19:00 +29°C° 0 mm 3 m/S 753 mmHg 63%
20:00 +27°C° 0 mm 3 m/S 753 mmHg 70%
21:00 +26°C° 0.2 mm 2 m/S 753 mmHg 73%
22:00 +26°C° 0.2 mm 2 m/S 753 mmHg 76%
23:00 +25°C° 0.2 mm 1 m/S 752 mmHg 79%

26 Juni, Samstag

Zeit Temperatur Niederschläge Wind Luftdruck Luftfeuchtigkeit
00:00 +24°C° 0 mm 1 m/S 752 mmHg 80%
01:00 +24°C° 0 mm 2 m/S 752 mmHg 81%
02:00 +24°C° 0 mm 2 m/S 753 mmHg 83%
03:00 +23°C° 0 mm 2 m/S 752 mmHg 85%
04:00 +23°C° 0 mm 2 m/S 752 mmHg 86%
05:00 +23°C° 0 mm 2 m/S 752 mmHg 88%
06:00 +25°C° 0 mm 3 m/S 753 mmHg 83%
07:00 +26°C° 0 mm 3 m/S 753 mmHg 78%
08:00 +27°C° 0 mm 4 m/S 753 mmHg 72%
09:00 +29°C° 0 mm 4 m/S 753 mmHg 67%
10:00 +30°C° 0 mm 4 m/S 753 mmHg 62%
11:00 +32°C° 0 mm 4 m/S 753 mmHg 57%
12:00 +33°C° 0 mm 4 m/S 753 mmHg 54%
13:00 +34°C° 0 mm 4 m/S 753 mmHg 50%
14:00 +34°C° 0 mm 4 m/S 753 mmHg 47%
15:00 +34°C° 0 mm 3 m/S 752 mmHg 51%
16:00 +33°C° 0 mm 3 m/S 752 mmHg 54%
17:00 +31°C° 0 mm 2 m/S 752 mmHg 58%
18:00 +30°C° 0.3 mm 2 m/S 752 mmHg 62%
19:00 +29°C° 0.3 mm 3 m/S 752 mmHg 66%
20:00 +28°C° 0.3 mm 3 m/S 752 mmHg 71%
21:00 +26°C° 2.1 mm 4 m/S 753 mmHg 77%
22:00 +23°C° 2.1 mm 5 m/S 753 mmHg 83%
23:00 +22°C° 2.1 mm 5 m/S 753 mmHg 90%

27 Juni, Sonntag

Zeit Temperatur Niederschläge Wind Luftdruck Luftfeuchtigkeit
00:00 +21°C° 0.3 mm 4 m/S 753 mmHg 90%
01:00 +21°C° 0.3 mm 3 m/S 753 mmHg 91%
02:00 +21°C° 0.3 mm 2 m/S 753 mmHg 92%
03:00 +21°C° 0 mm 3 m/S 753 mmHg 93%
04:00 +20°C° 0 mm 4 m/S 753 mmHg 93%
05:00 +20°C° 0 mm 4 m/S 753 mmHg 94%
06:00 +21°C° 0 mm 4 m/S 753 mmHg 91%
07:00 +22°C° 0 mm 4 m/S 754 mmHg 87%
08:00 +23°C° 0 mm 4 m/S 754 mmHg 83%
09:00 +26°C° 0 mm 4 m/S 754 mmHg 78%
10:00 +27°C° 0 mm 4 m/S 754 mmHg 73%
11:00 +28°C° 0 mm 4 m/S 754 mmHg 68%
12:00 +28°C° 0 mm 4 m/S 754 mmHg 67%
13:00 +28°C° 0 mm 4 m/S 754 mmHg 66%
14:00 +28°C° 0 mm 5 m/S 754 mmHg 65%
15:00 +28°C° 0 mm 5 m/S 754 mmHg 66%
16:00 +27°C° 0 mm 5 m/S 754 mmHg 67%
17:00 +27°C° 0 mm 5 m/S 754 mmHg 68%
18:00 +25°C° 0 mm 5 m/S 754 mmHg 74%
19:00 +23°C° 0 mm 5 m/S 754 mmHg 79%
20:00 +22°C° 0 mm 5 m/S 755 mmHg 85%
21:00 +21°C° 0 mm 6 m/S 755 mmHg 85%
22:00 +21°C° 0 mm 6 m/S 755 mmHg 86%
23:00 +20°C° 0 mm 6 m/S 755 mmHg 87%
Mehr zeigen

Wir brauchen deine Erlaubnis

Meteoprog und unser Service Anbieter werden persönliche Daten aufbewahren, so wie Cookies, Geräte Bezeichnung oder ähnliche Technologien von deinem Gerät und Prozess, so wie Persönliche Daten Inhalte und Werbungen, genauso wie social Media und den Verkehr zu analysieren.

  • Aufbewahrung und/oder Zugang zu deiner Geräte Informationen.

    Cookies, Geräte Bezeichnung oder andere Informationen, können aufbewahrt oder Zugang zu deinem Gerät erhalten, für den Grund, der oben angegeben wird.

  • Personalisierte Werbung und Inhalte, Messungen, Einblick in das Publikum und Produkt Entwicklung.

    Werbungen und Inhalte können personalisiert werden, basierend auf ein Profil. Mehr Daten können besser personalisierte Werbungen und Inhalte hinzufügen. Werbung und Inhalte können gezeigt und gemessen werden. Einblicke über das Publikum, welche die Werbung gesehen haben und den Inhalt, können abgeleitet werden. So wie Daten können genutzt werden, um es zu verbessern oder die Benutzer Erfahrung zu verbessern das System und die Software.

Wenn du “Ich stimme zu” klickst, erlaubst du uns, die Cookies zu benutzen die Geräte Bezeichnung, den Web oder ähnliche Technologien zu benutzen. Deine Settings, können in deinem Gerät bei deinem Browser geändert werden.

Für den bestimmten Zweck, berechtigten Interessen beruhen darauf, mehr als auf den Inhalt. Du kannst mehr darüber in unseren Privaten und Cookie Politik lesen.